Location: C?re?ti
(46.3833°N, 22.8333°E)
Time: 01:13:35
(UTC+00:00)

Daily predictions for brighter satellites

Satellite Brightness Start Highest point End
(mag) Time Altitude Azimuth Time Altitude Azimuth Time Altitude Azimuth
SL-16 R/B 4.2 00:24:55 26° N 00:24:55 26° N 00:27:32 10° N
USA 281 4.4 00:15:55 10° NE 00:20:24 36° ENE 00:20:24 36° ENE
ATLAS CENTAUR R/B 3.9 00:30:37 56° NNE 00:30:37 56° NNE 00:39:35 10° NE
ADEOS II 4.2 00:23:50 10° NNE 00:25:42 22° NNE 00:25:42 22° NNE
CZ-2D R/B 4.2 00:28:24 10° NNE 00:30:15 22° NNE 00:30:15 22° NNE
Cosmos 2082 Rocket 4.4 00:50:59 17° NNW 00:50:59 17° NNW 00:52:53 10° N
Lacrosse 5 rocket 4.5 00:56:20 12° ENE 00:56:20 12° ENE 00:56:40 10° NE
COSMOS 2428 3.9 01:00:52 10° NNW 01:06:12 39° NE 01:11:32 10° ESE
USA 215 3.8 01:07:39 10° E 01:13:58 54° NNE 01:16:10 38° NNW
CZ-2C R/B 4.1 01:13:15 10° NE 01:17:13 26° E 01:17:31 26° E
ALOS 3.8 01:15:22 10° NNE 01:17:57 32° NNE 01:17:57 32° NNE
ATLAS 2AS CENTAUR R/B 3.4 01:22:06 45° NW 01:22:06 45° NW 01:28:46 10° NNE
Cosmos 1655 Rocket 4.0 01:28:17 79° N 01:28:17 79° N 01:34:18 10° N
SL-08 ROCKET BODY 4.4 01:33:04 79° NNE 01:33:04 79° NNE 01:38:46 10° N
Meteor 2-12 Rocket 4.4 01:36:46 73° NNW 01:36:46 73° NNW 01:42:24 10° N
CZ-2C R/B 3.3 01:33:08 10° NNE 01:38:52 76° ESE 01:38:52 76° ESE
Thor Agena Rocket 3.9 01:36:36 10° NNE 01:40:54 59° N 01:40:54 59° N
USA 229 DEB 4.2 01:36:22 10° NW 01:43:44 68° NE 01:51:42 10° SE
USA 229 4.2 01:36:28 10° NW 01:43:49 68° NE 01:51:45 10° SE
Resurs 1-4 Rocket 4.1 01:41:55 10° N 01:43:36 17° NNW 01:43:36 17° NNW
Meteor 1-14 Rocket 4.2 01:40:49 10° N 01:46:52 90° WSW 01:47:37 70° S
Cosmos 1743 Rocket 4.3 01:46:17 10° N 01:50:32 51° ENE 01:50:44 51° E
Cosmos 1867 3.6 01:52:32 67° SSE 01:52:32 67° SSE 01:57:13 10° SSE
Cosmos 1805 Rocket 4.3 01:48:41 10° N 01:52:56 51° ENE 01:53:52 42° ESE
Meteor 2-6 Rocket 3.9 01:55:49 85° SSW 01:55:58 89° W 02:01:25 10° N
NOSS 3-1 (A) 4.0 01:55:41 28° NW 02:00:01 62° WSW 02:08:46 10° SSE
ATLAS CENTAUR R/B 4.2 02:01:10 10° NNE 02:01:59 11° NNE 02:02:46 10° NE
Sich 1 3.5 01:57:46 10° N 02:02:03 58° ENE 02:04:47 21° SSE
GP-B 3.7 02:00:52 35° SE 02:02:29 56° E 02:06:49 10° N
Meteor 1-10 Rocket 4.4 02:02:12 31° S 02:04:54 68° E 02:10:24 10° NNE
USA 281 3.6 02:00:28 10° NNE 02:06:37 44° NW 02:07:16 43° WNW
ADEOS II 3.7 02:04:08 10° N 02:06:36 21° NNW 02:06:36 21° NNW
BlueWalker 3 3.3 02:13:44 30° SE 02:13:44 30° SE 02:15:49 10° SE
IRS-1D 3.4 02:07:24 10° NNE 02:12:43 79° WNW 02:13:40 60° SW
YAOGAN 6 3.5 02:09:22 10° NNE 02:11:54 44° NE 02:11:54 44° NE
CZ-2D R/B 4.1 02:09:56 10° NNW 02:11:32 14° NW 02:11:32 14° NW
Cosmos 2315 Rocket 4.4 02:07:49 10° NNW 02:13:09 43° WNW 02:13:09 43° WNW
Envisat 3.1 02:10:07 10° NNE 02:15:14 76° ESE 02:17:37 32° S
Cosmos 2297 Rocket 3.2 02:13:12 12° S 02:17:59 43° ESE 02:23:19 10° NE
TIMED 4.5 02:21:39 58° S 02:22:27 79° ESE 02:26:48 10° NNE
Cosmos 1125 Rocket 3.6 02:25:57 50° W 02:26:24 51° WNW 02:31:29 10° NNE
Cosmos 2237 Rocket 2.6 02:22:07 10° NNW 02:27:46 63° ENE 02:33:22 10° SE
Nadezhda 2 Rocket 4.4 02:23:50 21° SSW 02:28:17 76° W 02:34:44 10° N
METEOR-M 4.1 02:25:30 10° N 02:30:48 63° WNW 02:32:41 39° SW
Cosmos 1536 2.5 02:27:34 10° NNW 02:31:27 78° W 02:32:05 60° SSW
BREEZE-M DEB 3.3 02:32:04 35° NE 02:32:04 35° NE 02:33:58 10° ENE
Lacrosse 5 rocket 2.4 02:31:30 30° NNW 02:31:36 30° NNW 02:35:04 10° NE
Cosmos 546 4.5 02:34:58 69° SSW 02:34:58 69° SSW 02:38:44 10° SE
SL-16 R/B 4.2 02:32:06 10° N 02:37:01 28° NE 02:41:53 10° ESE
YAOGAN 11 4.2 02:38:56 10° S 02:43:19 51° W 02:47:40 10° NNW
Okean 1 3.3 02:40:42 17° S 02:43:36 76° E 02:47:27 10° NNE
SL-08 R/B 4.4 02:41:15 11° SSW 02:47:12 68° W 02:53:17 10° N
Nadezhda 1 Rocket 4.0 02:41:03 10° N 02:47:23 90° NW 02:53:34 10° S
COBE Rocket 3.8 02:43:34 10° N 02:48:24 72° WNW 02:52:53 13° SSW
NOSS 0 Rocket 3.9 02:43:10 10° NW 02:49:19 61° WSW 02:55:26 10° S
Cosmos 1726 3.4 02:46:12 10° N 02:49:26 38° ENE 02:52:39 10° SSE
PAYLOAD A 4.1 02:45:08 10° N 02:49:52 49° WNW 02:52:13 28° SW
H-2A R/B 3.7 02:46:39 10° NNE 02:50:01 42° E 02:53:19 10° S
COSMOS 2428 3.1 02:45:14 10° NW 02:50:25 37° WSW 02:55:35 10° S
ATLAS 5 CENTAUR R/B 4.4 02:49:51 10° N 02:51:21 11° NNE 02:52:56 10° NE
ERS-2 4.4 02:49:58 10° NE 02:52:31 22° E 02:55:03 10° SSE
CBERS-1 3.9 02:48:09 10° N 02:53:16 73° WNW 02:58:22 10° SSW
CZ-2C R/B 2.8 02:51:07 10° N 02:55:29 37° WNW 02:56:50 31° WSW
ALOS 3.9 02:53:42 10° NNW 02:56:20 18° NW 02:56:20 18° NW
USA 215 3.3 02:50:26 10° SE 02:56:56 63° SW 03:03:26 10° WNW
Cosmos 1151 Rocket 3.0 02:54:47 18° SSW 02:57:56 61° WNW 03:02:17 10° N
Meteor 2-20 Rocket 4.4 02:55:59 10° N 03:02:17 89° E 03:08:17 10° S
Cosmos 2227 Rocket 2.8 02:59:11 10° S 03:04:43 58° ESE 03:10:17 10° NNE
Cosmos 1386 Rocket 4.4 02:59:50 10° SSW 03:06:07 69° W 03:12:19 10° N
ARIANE 5 R/B 2.9 03:01:32 10° NNE 03:06:32 64° ESE 03:11:28 10° S
Cosmos 1733 3.9 03:04:35 10° N 03:08:15 55° E 03:11:51 10° SSE
Cosmos 1666 Rocket 3.4 03:03:55 10° NNW 03:08:17 71° W 03:12:35 10° S
Cosmos 1328 Rocket 3.6 03:04:27 10° S 03:08:51 85° E 03:13:15 10° N
Cosmos 44 Rocket 3.3 03:05:11 19° SW 03:08:52 74° NW 03:14:05 10° NNE
Meteor 2-20 4.5 03:04:26 10° NNW 03:10:29 58° W 03:16:28 10° S
COSMO-SKYMED 1 3.8 03:06:38 10° SE 03:10:46 44° ENE 03:14:54 10° N
Meteor 1-27 Rocket 3.8 03:05:59 10° SSW 03:11:30 56° WNW 03:17:09 10° N
DMSP B5D2-2 4.1 03:09:10 10° S 03:14:19 56° W 03:19:32 10° NNW
ATLAS 2AS CENTAUR R/B 4.4 03:09:32 11° WNW 03:14:44 21° NNW 03:19:57 10° NE
CZ-2D R/B 4.1 03:16:23 10° NNE 03:20:42 61° E 03:25:01 10° S
Meteor 1-19 Rocket 4.2 03:15:36 10° SSW 03:21:05 59° WNW 03:26:29 10° N
Cosmos 1709 Rocket 4.0 03:15:37 10° S 03:22:00 86° W 03:28:23 10° N
Helios 1A 3.0 03:19:17 10° S 03:23:16 52° W 03:27:16 10° NNW
Cosmos 1269 Rocket 4.0 03:19:02 10° NNW 03:24:14 58° WSW 03:29:23 10° S
IRS-P3 4.2 03:19:03 10° NNE 03:24:25 82° ESE 03:29:46 10° SSW
Cosmos 1238 4.5 03:22:06 10° N 03:25:08 69° E 03:28:10 10° SSE
Cosmos 614 Rocket 4.3 03:25:15 10° NW 03:30:06 43° WSW 03:34:57 10° S
Meteor 2-4 Rocket 3.9 03:25:41 10° S 03:31:35 84° E 03:37:26 10° NNE
Cosmos 1140 Rocket 4.3 03:28:02 10° NNW 03:33:13 56° ENE 03:38:21 10° SE
Cosmos 1980 4.1 03:28:19 10° NW 03:33:33 40° WSW 03:38:47 10° S
Cosmos 1805 3.3 03:30:51 10° N 03:34:38 78° E 03:38:24 10° SSE
Cosmos 1745 Rocket 4.3 03:30:09 10° SSW 03:36:13 47° WNW 03:42:21 10° N
Cosmos 1633 Rocket 3.4 03:32:43 10° NNW 03:36:53 43° W 03:41:03 10° SSW
Cosmos 1484 Rocket 3.6 03:37:35 10° N 03:40:38 26° WNW 03:43:42 10° SW
ATLAS CENTAUR R/B 1.6 03:37:19 10° NNW 03:40:51 58° NE 03:44:23 10° SE
H-2A R/B 2.2 03:36:54 10° NNE 03:42:24 89° ESE 03:47:46 10° SSW
Meteor 1-18 Rocket 4.3 03:36:32 10° S 03:42:25 85° WNW 03:48:13 10° N
BREEZE-M DEB (TANK) 3.6 03:38:46 10° WSW 03:48:30 84° NNW 03:51:45 10° ENE
BlueWalker 3 4.0 03:48:29 10° WSW 03:49:47 11° SW 03:51:07 10° SSW
PSLV R/B 4.1 03:49:55 10° NNE 03:54:02 62° ESE 03:58:07 10° S
Cosmos 1869 Rocket 4.4 03:51:06 10° N 03:55:22 54° ENE 03:59:36 10° SSE
Cosmos 2251 Rocket 3.8 03:50:41 10° NNW 03:55:56 74° ENE 04:01:10 10° SSE
SAR-Lupe-2 4.4 03:52:44 10° NNE 03:56:17 55° ESE 03:59:47 10° S
SKYMED 2 3.6 03:54:30 10° S 03:58:47 60° W 04:03:06 10° NNW
Cosmos 2297 Rocket 2.9 03:57:01 10° WSW 04:02:08 34° NW 04:07:17 10° NNE
Cosmos 2074 Rocket 4.4 03:56:26 10° S 04:02:35 71° E 04:08:47 10° NNE
Cosmos 1939 Rocket 3.1 03:59:55 10° N 04:03:37 45° WNW 04:07:21 10° SW
USA 81 4.2 04:01:41 10° N 04:07:00 84° E 04:12:18 10° S
